Regional Weather Roundup
Issued by NWS San Diego, CA

Home | Current Version | Previous Version | Text Only | Print | Product List | Glossary On
Versions: 1 2 3 4 5 6 7 8 9 10 11 12 13 14 15 16 17 18 19 20 21 22 23 24 25 26 27 28 29 30 31 32 33 34 35 36 37 38 39 40 41 42 43 44 45 46 47 48 49 50
000
ASUS46 KSGX 070511
RWRSGX

SAN DIEGO HOURLY WEATHER ROUNDUP
NATIONAL WEATHER SERVICE SAN DIEGO CA
1000 PM PDT WED MAY 06 2015

NOTE: "FAIR" INDICATES FEW OR NO CLOUDS BELOW 12,000 FEET WITH NO
SIGNIFICANT WEATHER AND/OR OBSTRUCTIONS TO VISIBILITY.

CAZ042-043-060-061-PZZ750-775-070600-

GREATER SAN DIEGO AREA

CITY           SKY/WX    TMP DP  RH WIND       PRES   REMARKS
LINDBERGH FLD  MOCLDY    61  49  64 W8        29.91R
POINT LOMA       N/A     57  48  72 W8          N/A
CHULA VISTA      N/A     60  53  77 W8        29.83R
IMPERIAL BEACH CLOUDY    61  50  67 W7        29.91R
BROWN FIELD    CLOUDY    57  51  80 W6        29.90R
MIRAMAR MCAS   CLOUDY    61  50  67 W7        29.90R
MONTGOMERY FLD CLOUDY    59  51  75 SW8       29.90R

$$

NORTH SAN DIEGO COUNTY

CITY           SKY/WX    TMP DP  RH WIND       PRES   REMARKS
CAMP PENDLETON CLOUDY    60  50  69 CALM      29.89R
OCEANSIDE AP   CLOUDY    61  50  67 W6        29.88R
VISTA            N/A     58  52  79 CALM      29.87R
CARLSBAD       CLOUDY    60  50  69 W6        29.88R
FALLBROOK        N/A     58  56  93 S1        29.88R
SAN MARCOS       N/A     58  52  81 CALM      29.88R

$$

EAST SAN DIEGO COUNTY

CITY           SKY/WX    TMP DP  RH WIND       PRES   REMARKS
RAMONA         CLOUDY    54  49  83 W6        29.89R
SANTEE LAKES     N/A     59  53  79 CALM      29.89R
LA MESA          N/A     58  52  79 CALM      29.84R
DESCANSO N       N/A     47  46  94 CALM      29.79R
CAMPO            N/A     50  47  89 SW12      29.85R

$$

ORANGE COUNTY AND THE LOS ANGELES BASIN

CITY           SKY/WX    TMP DP  RH WIND       PRES   REMARKS
JOHN WAYNE AP  MOCLDY    60  50  69 SW3       29.88R
LAKE FOREST FR   N/A     56  49  80 CALM      29.78R
SANTA ANA        N/A     62  51  67 CALM      29.83R
HUNTINGTON BCH   N/A     59  53  79 W8        29.89R
LOS ALAMITOS   MOCLDY    59  49  70 SW6       29.88R
FULLERTON      CLOUDY    60  48  64 W3        29.87R
LONG BEACH     MOCLDY    60  49  66 NW7       29.88R
L.A. AP        PTCLDY    57  51  80 W12       29.88R
L.A. DOWNTOWN  CLOUDY    60  50  69 CALM      29.87R

$$

THE INLAND EMPIRE

CITY           SKY/WX    TMP DP  RH WIND       PRES   REMARKS
CORONA         PTCLDY    58  51  77 W7        29.87R
CHINO          MOCLDY    59  49  69 W12       29.88R
ONTARIO        CLOUDY    58  48  69 SW12      29.87R
RIVERSIDE AP   CLOUDY    59  49  69 W8        29.86R
RIV CYN CREST    N/A     58  57  94 CALM        N/A
MORENO VALLEY    N/A     56  53  88 CALM      29.84R
MARCH ARB      CLOUDY    57  49  73 NW7       29.86R
HORSETHIEF CYN   N/A     57  47  68 W3        29.83R
MENIFEE          N/A     58  53  84 S3        29.92R
HEMET EAST       N/A     66  48  53 CALM      29.85R
FRENCH VALLEY  CLOUDY    55  48  76 S8        29.88R
TEMECULA         N/A     56  52  86 SW5       29.85R

$$

SAN BERNARDINO AND RIVERSIDE COUNTY MOUNTAINS

CITY           SKY/WX    TMP DP  RH WIND       PRES   REMARKS
BIG BEAR AP    CLEAR     39  28  65 W8        29.89S WCI  34

$$

SOUTHERN DESERT INCLUDING THE COACHELLA VALLEY

CITY           SKY/WX    TMP DP  RH WIND       PRES   REMARKS
PALM SPRINGS   CLEAR     71  42  35 NW23      29.70R
THOUSAND PALMS   N/A     68  46  44 W17       29.68R
THERMAL        CLEAR     71  45  39 NW21G33   29.67R
BLYTHE         CLEAR     73  47  39 SW16      29.68R
IMPERIAL AP    CLEAR     66  45  46 W14G24    29.71R
EL CENTRO NAS  CLEAR     68  43  40 W24       29.73S
YUMA AZ        CLEAR     72  43  35 NW10      29.74R
MEXICALI       CLEAR     70  43  37 W18       29.71R

$$

UPPER DESERT

CITY           SKY/WX    TMP DP  RH WIND       PRES   REMARKS
VICTORVILLE AP CLEAR     54  41  62 S10G17    29.79R
HESPERIA         N/A     51  45  79 W14       29.89R
APPLE VALLEY     N/A     53  43  69 SW5G22    29.89R
PALMDALE       CLEAR     53  43  68 SW22      29.79R
LANCASTER      CLEAR     52  43  71 SW24G31   29.79R
EDWARDS AFB    CLEAR     54  42  64 SW23      29.74S
DAGGETT        CLEAR     65  37  35 SW21G29   29.71R
29 PALMS N     CLEAR     64  40  41 W10       29.78R
NEEDLES        CLEAR     78  25  14 SW12      29.65R

$$

REGIONAL REPORTS

CITY           SKY/WX    TMP DP  RH WIND       PRES   REMARKS
SANTA BARBARA  CLEAR     57  43  59 VRB7      29.86R
SANDBERG       CLOUDY    44  42  93 SW13      29.87R FOG
MT. WILSON       N/A     41  41 100 S3          N/A
LAS VEGAS NV   CLEAR     76  21  12 S20G28    29.60R
PHOENIX AZ     PTCLDY    76  32  20 SW9       29.73R
TIJUANA        CLOUDY    57  48  72 W7        29.92R
ENSENADA NW      N/A     60  32  35 CALM      29.90R

$$

OFFSHORE ISLANDS

CITY           SKY/WX    TMP DP  RH WIND       PRES   REMARKS
CATALINA ARPT  CLOUDY    52  48  86 W6        29.89R
SAN NICOLAS IS MOCLDY   N/A N/A N/A W17       29.90R

$$

MARINE AND OFFSHORE BUOY REPORTS

STATION/POSITION SKY/WX   TEMP    WIND        PRES    SWELL
                          AIR SEA DIR/SP/G            HT/PER/DIR
                          (F)     (DEG/KT/KT) (MB)    (FT/S/D)
TANNER BANKS               58 61  320/ 19/ 23 1013.3R   7/320/12
S CLEMENTE BASIN           59 64  280/ 14/ 17 1012.4R   5/270/12
SAN NICOLAS IS.               59                N/A     8/310/11
SO. S. ROSA ISLA           57 59  320/ 19/ 23 1012.0R   7/11
W. S. BARBARA CH           55 56  330/ 14/ 17 1012.0R   7/310/11
S. MONICA BASIN            57 59  290/ 10/ 12 1011.9R   5/270/ 6
S PEDRO CHANNEL               63                N/A     2/180/15
DANA POINT                    60                N/A     3/190/14
OCEANSIDE OFFSHR              63                N/A     3/190/14
TORREY PINES OTR              63                N/A     3/200/15
LA JOLLA 1                 60 66  260/  6/  8 1011.8R
MISSION BAY BUOY              64                N/A     3/280/13
SAN DIEGO BAY                 68              1012.4R
POINT LOMA SOUTH              64                N/A     3/230/13

$$



USA.gov is the U.S. government's official web portal to all federal, state and local government web resources and services.